{"data":{"norad_id":69020,"intl_designator":"2026-100AS","name":"SELENE","alt_names":[],"object_type":"PAYLOAD","status":"ACTIVE","operator":null,"country":"GREC","launch_date":"2026-05-03","launch_site_code":"AFWTR","launch_vehicle":null,"mission":null,"orbit_class":"UNKNOWN","rcs_meters":null,"size_class":null,"mass_kg":null,"dimensions":null,"purposes":[],"wikipedia_slug":null,"has_3d_model":false,"image_url":null,"decayed_at":null,"tle_current":{"epoch":"2026-05-24T23:59:27.962880Z","epoch_age_seconds":75167,"freshness":"FRESH","line1":"1 69020U 26100AS  26144.99962920  .00007913  00000+0  37493-3 0  9997","line2":"2 69020  97.4066  43.2136 0005981  70.9533 289.2349 15.19566359  3280","mean_motion":15.19566359,"eccentricity":0.0005981,"inclination_deg":97.4066,"raan_deg":43.2136,"arg_perigee_deg":70.9533,"mean_anomaly_deg":289.2349,"bstar":0.00037493,"rev_number":328,"period_min":94.763877304288,"perigee_km":503.03212206434,"apogee_km":511.26830262775,"semimajor_km":6885.287212346,"source":"CELESTRAK","updated_at":"2026-05-25T13:38:09.041714Z"}}}